Location: Fort Wayne
(41.1310°N, 85.1290°W)
Time: 04:12:40
(UTC-05:00)

COSMOS 2406 - Visible Passes

Search period start: 24 November 2017 00:00
Search period end: 04 December 2017 00:00
Orbit: 842 x 865 km, 71.0° (Epoch: 23 November)

Date Brightness Start Highest point End Pass type
(mag) Time Alt. Az. Time Alt. Az. Time Alt. Az.
24 Nov 5.8 06:19:41 10° SSE 06:24:07 23° E 06:28:35 10° NE visible
24 Nov 6.5 18:44:13 10° WNW 18:46:58 14° W 18:49:43 10° SW visible
25 Nov 5.8 06:08:13 10° SSE 06:12:42 24° E 06:17:12 10° NE visible
25 Nov 6.5 18:32:52 10° WNW 18:35:32 14° W 18:38:12 10° SW visible
26 Nov 5.7 05:56:46 10° SSE 06:01:16 24° ESE 06:05:48 10° NE visible
26 Nov 6.5 18:21:31 10° WNW 18:24:06 13° W 18:26:41 10° SW visible
27 Nov 5.6 05:45:18 10° SSE 05:49:51 25° ESE 05:54:24 10° NE visible
27 Nov 6.5 18:10:10 10° WNW 18:12:40 13° W 18:15:10 10° WSW visible
28 Nov 5.5 05:33:50 10° SSE 05:38:25 25° ESE 05:43:01 10° NE visible
28 Nov 6.5 17:58:49 10° WNW 18:01:14 13° W 18:03:38 10° WSW visible
29 Nov 5.4 05:22:23 10° SSE 05:26:59 25° ESE 05:31:37 10° NE visible
29 Nov 3.5 07:05:26 10° SW 07:10:59 47° WNW 07:16:33 10° NNE visible
29 Nov 6.5 17:47:29 10° WNW 17:49:48 13° W 17:52:08 10° WSW visible
30 Nov 5.4 05:10:55 10° SSE 05:15:34 26° ESE 05:20:13 10° NE visible
30 Nov 3.5 06:54:02 10° SW 06:59:34 46° WNW 07:05:07 10° NNE visible
01 Dec 5.3 04:59:28 10° SSE 05:04:08 26° ESE 05:08:48 10° NE visible
01 Dec 3.5 06:42:37 10° SW 06:48:08 46° WNW 06:53:41 10° NNE visible
02 Dec 5.2 04:48:01 10° SSE 04:52:42 26° ESE 04:57:25 10° NE visible
02 Dec 3.5 06:31:13 10° SW 06:36:43 45° WNW 06:42:15 10° NNE visible
03 Dec 5.1 04:36:33 10° SSE 04:41:17 27° ESE 04:46:01 10° NE visible
03 Dec 3.5 06:19:49 10° SW 06:25:18 44° WNW 06:30:50 10° NNE visible
